Wiscasset, ME

5:05 AM EDT on September 25, 2017 (GMT -0400)
Wiscasset

Weather History for KIWI - November, 2013

Change the Weather History Date:

Saturday, November 9, 2013

  Actual Average Record
Temperature  
Mean Temperature 36 °F -  
Max Temperature 45 °F 45 °F 64 °F (2006)
Min Temperature 27 °F 29 °F 19 °F (1999)
Degree Days  
Heating Degree Days 29    
Moisture  
Dew Point 21 °F    
Average Humidity 55    
Maximum Humidity 81    
Minimum Humidity 34    
Precipitation  
Precipitation 0.00 in - - ()
Sea Level Pressure  
Sea Level Pressure 30.08 in    
Wind  
Wind Speed 5 mph (WNW)    
Max Wind Speed 10 mph    
Max Gust Speed 20 mph    
Visibility 10 miles    
Events      
Averages and records for this station are not official NWS values.
T = Trace of Precipitation, MM = Missing Value Source: NWS Daily Summary

Daily Weather History Graph

Daily Weather History Graph

Search for Another Location

Airport or City:

Trip Planner

Search our weather history database for the weather conditions in past years. The results will help you decide how hot, cold, wet, or windy it might be!

Date:

Astronomy

Nov. 09, 2013 Rise Set
Actual Time 6:26 AM EST 4:18 PM EST
Civil Twilight 5:55 AM EST 4:49 PM EST
Nautical Twilight 5:20 AM EST 5:23 PM EST
Astronomical Twilight 4:47 AM EST 5:57 PM EST
Moon 11:58 AM EST (11/9) 10:48 PM EST (11/9)
Length of Visible Light 10h 54m
Length of Day
9h 52m
Waxing Crescent, 44% of the Moon is Illuminated
Nov 9
Waxing Crescent
Nov 10
First Quarter
Nov 17
Full
Nov 25
Last Quarter
Dec 2
New

Hourly Weather History & Observations

Time (EST) Temp. Windchill Dew Point Humidity Pressure Visibility Wind Dir Wind Speed Gust Speed Precip Events Conditions
12:53 AM 37.0 °F 33.3 °F 21.0 °F 52% 29.99 in 10.0 mi West 4.6 mph - N/A   Mostly Cloudy
1:53 AM 37.9 °F 33.5 °F 19.9 °F 48% 30.01 in 10.0 mi Variable 5.8 mph - N/A   Overcast
2:53 AM 37.0 °F 32.4 °F 19.9 °F 50% 30.03 in 10.0 mi Variable 5.8 mph - N/A   Overcast
3:53 AM 34.0 °F 31.0 °F 19.9 °F 56% 30.04 in 10.0 mi West 3.5 mph - N/A   Clear
4:53 AM 36.0 °F 31.1 °F 21.0 °F 55% 30.05 in 10.0 mi Variable 5.8 mph - N/A   Scattered Clouds
5:53 AM 37.0 °F 32.4 °F 19.9 °F 50% 30.08 in 10.0 mi West 5.8 mph - N/A   Overcast
6:53 AM 37.0 °F 31.6 °F 21.0 °F 52% 30.10 in 10.0 mi West 6.9 mph - N/A   Scattered Clouds
7:53 AM 39.0 °F 33.4 °F 19.9 °F 46% 30.12 in 10.0 mi WNW 8.1 mph - N/A   Clear
8:53 AM 39.0 °F 33.4 °F 21.0 °F 49% 30.12 in 10.0 mi West 8.1 mph - N/A   Clear
9:53 AM 41.0 °F 35.2 °F 19.0 °F 41% 30.12 in 10.0 mi West 9.2 mph 16.1 mph N/A   Clear
10:53 AM 43.0 °F 39.5 °F 19.0 °F 38% 30.11 in 10.0 mi Variable 5.8 mph - N/A   Clear
11:53 AM 44.1 °F 40.1 °F 19.0 °F 37% 30.08 in 10.0 mi Variable 6.9 mph 19.6 mph N/A   Clear
12:53 PM 45.0 °F 41.8 °F 19.0 °F 36% 30.07 in 10.0 mi Variable 5.8 mph 18.4 mph N/A   Clear
1:53 PM 44.1 °F 38.6 °F 17.1 °F 34% 30.06 in 10.0 mi NW 10.4 mph - N/A   Clear
2:53 PM 42.1 °F 40.2 °F 18.0 °F 38% 30.07 in 10.0 mi Variable 3.5 mph - N/A   Clear
3:53 PM 42.1 °F 40.2 °F 19.0 °F 40% 30.07 in 10.0 mi NW 3.5 mph - N/A   Clear
4:53 PM 35.1 °F - 21.0 °F 57% 30.09 in 10.0 mi Calm Calm - N/A   Clear
5:53 PM 32.0 °F - 21.9 °F 66% 30.10 in 10.0 mi Calm Calm - N/A   Partly Cloudy
6:53 PM 28.9 °F - 21.0 °F 72% 30.11 in 10.0 mi Calm Calm - N/A   Clear
7:53 PM 28.0 °F - 21.9 °F 78% 30.12 in 10.0 mi Calm Calm - N/A   Clear
8:53 PM 27.0 °F - 21.0 °F 78% 30.12 in 10.0 mi Calm Calm - N/A   Clear
9:53 PM 28.0 °F - 23.0 °F 81% 30.12 in 10.0 mi Calm Calm - N/A   Overcast
10:53 PM 30.0 °F - 24.1 °F 79% 30.10 in 10.0 mi Calm Calm - N/A   Overcast
11:53 PM 32.0 °F - 26.1 °F 79% 30.09 in 10.0 mi Calm Calm - N/A   Overcast